www.pogodaiklimat.ru

Погода и климат >> Архив погоды >> Бангладеш >> Маиидиcурт


ПОГОДА в Маиидиcурте

  • Прогноз погоды в Маиидиcурте
  • Монитор погоды в Маиидиcурте

АРХИВ ПОГОДЫ в Маиидиcурте

Время (UTC), дата Ветер
(напр.,м/с)
 
Видим.   Явления Облачность Т
(С)
Тd
(С)
f
(%)
Тe
(С)
Тes
(С)
Комфортность P
(гПа)
Po
(гПа)
Тmin
(С)
Tmax
(С)
R
(мм)
R24
(мм)
S
(см)
06 12.06 Ю 1 6000 м 4/4 540 м
[Sc diur, vesp]
+35.0 +26.0 60 +51 +66 опасность
перегрева
1001.5 1001.0
18 12.06 штиль 0 3000 м 3/3 540 м
[Sc]
+30.0 +28.0 89 +50 +50 опасность
перегрева
1000.2 999.7
00 13.06 В 3 4000 м 6/6 540 м
[Sc]
+29.0 +28.0 94 +48 +48 опасность
перегрева
998.8 998.3
18 13.06 Ю 2 3000 м 5/5 540 м
[Sc]
+30.0 +28.0 89 +50 +50 опасность
перегрева
999.4 998.9
00 14.06 штиль 0 3000 м слаб. дождь {гроза} 10/6 270 м
[Frnb As op]
+29.0 +28.0 94 +48 +48 опасность
перегрева
998.2 997.7 4
06 14.06 Ю 1 4000 м {дождь} 10/5 450 м
[Sc As op]
+32.6 +28.0 77 +53 +56 опасность
перегрева
999.4 998.5 1
12 14.06 штиль 0 5000 м 8/0
[Ac trans]
+31.0 +28.0 84 +51 +51 опасность
перегрева
997.2 996.6 +33.0
18 14.06 Ю 3 3000 м 5/5 540 м
[Sc]
+30.0 +29.0 94 +52 +52 опасность
перегрева
1000.6 1000.1
00 15.06 Ю 1 4000 м 10/6 480 м
[Sc As op]
+29.4 +28.0 92 +49 +49 опасность
перегрева
999.5 998.9
03 15.06 ЮВ 3 5000 м 10/5 480 м
[Sc As op]
+32.0 +27.0 75 +50 +51 опасность
перегрева
1000.2 999.7 +28.4
06 15.06 Ю 2 3000 м гроза, ливневой дождь 10/8 240 м
[Cb cap As op]
+25.0 +24.0 94 +34 +35 очень
душно
1000.1 1009.6 11
09 15.06 Ю 1 3000 м гроза, ливневой дождь 10/8 240 м
[Cb cap As op]
+25.5 +25.0 97 +36 +37 очень
душно
1000.0 999.5
12 15.06 штиль 0 4000 м {гроза, дождь} 10/8 240 м
[St As op]
+25.6 +25.0 96 +36 +36 очень
душно
998.6 998.0 +32.4 4
18 15.06 Ю 2 4000 м 8/4 480 м
[Sc As op]
+26.0 +25.0 94 +37 +37 очень
душно
1001.0 1000.4
00 16.06 Ю 2 4000 м 8/4 500 м
[Sc As op]
+27.0 +26.0 94 +40 +41 очень
душно
1000.6 1000.0
03 16.06 Ю 3 4000 м 10/4 480 м
[Sc As op]
+30.6 +27.0 81 +48 +49 опасность
перегрева
1000.8 1000.3 +24.4
06 16.06 Ю 2 5000 м 8/5 480 м
[Sc diur, vesp As op]
+32.2 +28.0 79 +53 +59 опасность
перегрева
1000.5 999.9
09 16.06 Ю 2 5000 м 8/5 480 м
[Sc diur, vesp As op]
+33.4 +27.0 69 +51 +55 опасность
перегрева
998.8 998.2
12 16.06 Ю 2 5000 м 10/5 480 м
[Sc diur, vesp As op]
+31.4 +27.0 78 +49 +49 опасность
перегрева
998.6 998.0 +34.2
15 16.06 Ю 2 4000 м 8/4 500 м
[Sc As op]
+29.6 +28.0 91 +49 +49 опасность
перегрева
1000.2 999.6
18 16.06 штиль 0 4000 м 5/3 500 м
[Sc As op]
+28.6 +28.0 97 +47 +47 опасность
перегрева
1000.4 999.9
00 17.06 штиль 0 4000 м 6/3 500 м
[Sc As op]
+28.8 +28.0 95 +47 +48 опасность
перегрева
999.7 999.1
03 17.06 Ю 2 5000 м 6/4 500 м
[Sc diur, vesp As op]
+33.0 +28.0 75 +54 +60 опасность
перегрева
1000.7 1000.2 +27.5
06 17.06 Ю 2 5000 м 6/5 500 м
[Sc diur, vesp As op]
+34.0 +27.0 67 +52 +62 опасность
перегрева
1000.4 999.9
09 17.06 Ю 2 5000 м 6/5 500 м
[Sc diur, vesp As op]
+33.4 +27.0 69 +51 +57 опасность
перегрева
999.0 998.5
12 17.06 Ю 2 5000 м 8/5 500 м
[Sc diur, vesp As op]
+31.8 +28.0 80 +52 +52 опасность
перегрева
998.4 997.9 +34.6
15 17.06 Ю 2 4000 м 5/3 540 м
[Sc As op]
+30.5 +28.0 87 +51 +51 опасность
перегрева
999.9 999.4
18 17.06 Ю 1 4000 м 8/4 480 м
[Sc As op]
+30.0 +29.0 94 +52 +52 опасность
перегрева
1001.2 1000.7
00 18.06 Ю 2 4000 м {дождь} 10/4 480 м
[Sc As op]
+26.2 +25.0 93 +37 +38 очень
душно
1001.5 1001.0 3
03 18.06 Ю 2 5000 м 8/5 480 м
[Sc diur, vesp As op]
+28.8 +26.0 85 +43 +47 опасность
перегрева
1001.2 1000.6 +25.5
06 18.06 Ю 1 5000 м 8/5 500 м
[Sc diur, vesp As op]
+33.0 +26.0 67 +49 +56 опасность
перегрева
1000.1 999.6
09 18.06 Ю 1 5000 м 6/4 540 м
[Sc diur, vesp Ac trans]
+35.0 +26.0 60 +51 +58 опасность
перегрева
998.4 997.9
12 18.06 Ю 2 5000 м 6/4 540 м
[Sc diur, vesp Ac trans]
+32.0 +27.0 75 +50 +50 опасность
перегрева
997.4 996.9 +35.6
15 18.06 штиль 0 4000 м 6/4 500 м
[Sc As op]
+30.4 +27.0 82 +48 +48 опасность
перегрева
999.7 999.2
18 18.06 штиль 0 4000 м 10/4 480 м
[Sc As op]
+29.6 +29.0 97 +52 +52 опасность
перегрева
1000.9 1000.4

 

Местоположение метеостанции Маиидиcурт (Бангладеш): широта 22.87 долгота 91.10 высота над уровнем моря 6 м.

В архиве по умолчанию представлена погода в Маиидиcурте за последнюю неделю. Архивные данные за месяц целиком и за предыдущие месяцы, начиная с января 2011 года, Вы можете получить, выбрав интересующий диапазон дат из раскрывающегося списка и нажав кнопку "Ввод!".


*Определитесь, кто Вы:
робот инопланетянин человек

Внимание! Время в таблицах - всемирное. Для получения местного времени необходимо прибавить поправку, которая равна 6.5 ч.

Смотрите также архив погоды в соседних городах и на ближайших метеорологических станциях:

Погода в Фени (Бангладеш) (37 км)
Погода в Хатии (Бангладеш) (49 км)
Погода в Бхоле (Бангладеш) (51 км)
Погода в Сандвипе (Бангладеш) (55 км)
Погода в Чандпуре (Бангладеш) (60 км)
Погода в Комилле (Бангладеш) (63 км)
Погода в Ситакунду (Бангладеш) (69 км)
Погода в Барисале (Бангладеш) (76 км)
Погода в Патуакхали (Бангладеш) (99 км)
Погода в Читтагонге (Бангладеш) (100 км)

Пояснения к столбцам:

Ветер - указаны скорость ветра в м/с - средняя за 10 мин, порывы в срок и между сроками (в фигурных скобках) и направление, откуда дует ветер: С - северный, СВ - северо-восточный, В - восточный, ЮВ - юго-восточный, Ю - южный, ЮЗ - юго-западный, З - западный, СЗ - северо-западный.
Видимость - горизонтальная дальность видимости в метрах или километрах. При видимости от 1 до 10 км при отсутствии осадков обычно наблюдается дымка, при ухудшении видимости до 1 км и менее - туман. В сухую погоду видимость может ухудшаться дымом, пылью или мглою.
Явления - указаны атмосферные явления, наблюдавшиеся в срок или в последний час перед сроком; фигурными скобками обозначены явления, наблюдавшиеся между сроками (за 1-3 часа до срока); квадратными скобками обозначены град или гололедные отложения с указанием их диаметра в мм.
Облачность - указаны через наклонную черту общая и нижняя облачность в баллах и высота нижней границы облаков в метрах; квадратными скобками обозначены формы облаков: Ci - перистые, Cs - перисто-слоистые, Cc - перисто-кучевые, Ac - высококучевые, As - высокослоистые, Sc - слоисто-кучевые, Ns - слоисто-дождевые, Cu - кучевые, Cb - кучево-дождевые. Подробнее классификацию облаков см. в Атласе облаков (PDF).
T - Температура воздуха - температура, измеренная на высоте 2 м над землей.
Td - Температура точки росы - температура, при понижении до которой содержащийся в воздухе водяной пар достигнет насыщения.
f - Относительная влажность воздуха - влажноcть воздуха, измеренная на высоте 2 м над землей.
Te - Эффективная температура - температура, которую ощущает одетый по сезону человек в тени. Характеристика душности погоды. При расчете учитывается влияние влажности воздуха и скорости ветра на теплоощущения человека.
Tes - Эффективная температура на солнце - температура, которую ощущает человек, с поправкой на солнечный нагрев. Характеристика знойности погоды. Зависит от высоты солнца над горизонтом, облачности и скорости ветра. Ночью, в пасмурную погоду, а также при ветре 12 м/с и более поправка равна нулю.
P - Атмосферное давление - приведенное к уровню моря атмосферное давление.
Po - Атмосферное давление - измеренное на уровне метеостанции атмосферное давление.
Tmin - Минимальная температура - минимум температуры воздуха на высоте 2 м над землей.
Tmax - Максимальная температура - максимум температуры воздуха на высоте 2 м над землей.
R - Количество осадков - Количество выпавших осадков за период времени, мм. При наведении курсора мыши на число - период времени, за который выпало указанное количество осадков.
R24 - Количество осадков - Количество выпавших осадков за 24 часа, мм.
S - Снежный покров - Высота снежного покрова, см. При наведении курсора мыши на число - состояние снежного покрова и степень покрытия местности в баллах.